Flag for U.S.A. Weather past 2 weeks in Menominee, Michigan, U.S.A.

Now
61 °F

Partly sunny.


Feels Like: 61 °F
Forecast: 60 / 75 °F
Wind: 6 mph from West

Location: Menominee Weather Reporting Station

Current Time: Jul 25, 2014 at 6:28:41 AM

Latest Report: Jul 25, 2014 at 5:55 AM


Visibility: 10 mi

Pressure: 29.96 "Hg

Humidity: 63%

Dew point: 48 °F

Location of MenomineeLocation

Historic Weather in Menominee — Graph

°F

Menominee temperature yesterday

Maximum temperature yesterday: 73 °F (at 2:35 PM)
Minimum temperature yesterday: 48 °F (at 4:15 AM)
Average temperature yesterday: 62 °F

Past Weeks' High & Low Weather Summary

 TemperatureHumidityPressure
High84 °F (Jul 21, 12:55 PM)94% (Jul 10, 5:35 AM)30.20 "Hg (Jul 10, 5:35 AM)
Low46 °F (Jul 10, 5:15 AM)31% (Jul 13, 4:35 PM)29.77 "Hg (Jul 14, 2:15 PM)
Average67 °F66%29.99 "Hg
* Reported Jul 10 5:15 AM — Jul 25 5:35 AM, Menominee, Weather by CustomWeather, © 2014

Note: Actual official high and low records may vary slightly from our data, if they occured in-between our weather recording intervals... More about our weather records

Advertising

Menominee weather history for previous 24 hours

 ConditionsComfort  
Time TempWeatherWind HumidityBarometerVisibility
5:35 AM
Jul 25
61 °FSunny.6 mph63%29.95 "Hg10 mi
4:55 AM63 °FClear.7 mph56%29.96 "Hg10 mi
4:35 AM63 °FPassing clouds.7 mph56%29.94 "Hg10 mi
4:15 AM63 °FPassing clouds.7 mph59%29.94 "Hg10 mi
3:55 AM63 °FPassing clouds.7 mph59%29.95 "Hg10 mi
3:35 AM63 °FPassing clouds.5 mph59%29.96 "Hg10 mi
3:15 AM64 °FClear.7 mph60%29.96 "Hg10 mi
2:55 AM63 °FClear.7 mph59%29.97 "Hg10 mi
2:35 AM63 °FClear.6 mph59%29.98 "Hg10 mi
2:15 AM63 °FClear.10 mph59%29.99 "Hg10 mi
1:55 AM63 °FClear.10 mph59%29.99 "Hg10 mi
1:35 AM63 °FClear.9 mph59%29.98 "Hg10 mi
1:15 AM63 °FClear.9 mph59%29.98 "Hg10 mi
12:55 AM63 °FPassing clouds.10 mph59%29.99 "Hg10 mi
12:35 AM63 °FPassing clouds.10 mph59%30.00 "Hg10 mi
12:15 AM63 °FPassing clouds.10 mph59%30.00 "Hg10 mi
11:55 PM
Jul 24
63 °FPassing clouds.9 mph59%30.00 "Hg10 mi
11:35 PM63 °FPassing clouds.10 mph56%30.01 "Hg10 mi
11:15 PM61 °FClear.8 mph59%30.01 "Hg10 mi
10:55 PM61 °FClear.7 mph59%30.01 "Hg10 mi
10:35 PM63 °FClear.6 mph56%30.00 "Hg10 mi
10:15 PM63 °FClear.9 mph56%30.01 "Hg10 mi
9:55 PM63 °FClear.8 mph56%30.00 "Hg10 mi
9:35 PM63 °FClear.8 mph56%30.00 "Hg10 mi
9:15 PM64 °FPassing clouds.8 mph52%30.00 "Hg10 mi
8:55 PM64 °FPassing clouds.10 mph52%30.00 "Hg10 mi
8:35 PM64 °FPassing clouds.9 mph52%30.00 "Hg10 mi
8:15 PM64 °FSunny.8 mph56%30.00 "Hg10 mi
7:55 PM66 °FSunny.8 mph52%30.00 "Hg10 mi
7:35 PM66 °FSunny.12 mph52%30.01 "Hg10 mi
7:15 PM68 °FSunny.13 mph49%30.01 "Hg10 mi
6:55 PM70 °FSunny.9 mph46%30.01 "Hg10 mi
6:35 PM70 °FSunny.13 mph46%30.01 "Hg10 mi
6:15 PM70 °FSunny.15 mph46%30.02 "Hg10 mi
5:55 PM72 °FSunny.14 mph44%30.03 "Hg10 mi
5:35 PM73 °FSunny.15 mph47%30.03 "Hg10 mi
5:15 PM73 °FSunny.10 mph44%30.05 "Hg10 mi
4:55 PM73 °FSunny.9 mph44%30.05 "Hg10 mi
4:35 PM73 °FSunny.9 mph44%30.06 "Hg10 mi
3:55 PM73 °FSunny.8 mph44%30.05 "Hg10 mi
3:35 PM73 °FSunny.10 mph47%30.05 "Hg10 mi
3:15 PM73 °FSunny.13 mph47%30.06 "Hg10 mi
2:55 PM73 °FSunny.9 mph44%30.07 "Hg10 mi
2:35 PM73 °FSunny.16 mph44%30.08 "Hg10 mi
2:15 PM72 °FSunny.17 mph47%30.09 "Hg10 mi
1:55 PM72 °FSunny.13 mph44%30.10 "Hg10 mi
1:35 PM72 °FPassing clouds.15 mph44%30.11 "Hg10 mi
12:55 PM72 °FScattered clouds.9 mph44%30.12 "Hg10 mi
12:35 PM70 °FPartly sunny.9 mph46%30.13 "Hg10 mi
12:15 PM70 °FPartly sunny.10 mph46%30.14 "Hg9 mi
11:55 AM70 °FScattered clouds.10 mph50%30.14 "Hg8 mi
11:35 AM70 °FSunny.12 mph53%30.15 "Hg10 mi
10:55 AM70 °FPassing clouds.8 mph53%30.16 "Hg10 mi
10:35 AM68 °FSunny.5 mph46%30.16 "Hg10 mi
10:15 AM66 °FSunny.3 mph49%30.16 "Hg10 mi
9:55 AM66 °FSunny.No wind49%30.17 "Hg10 mi
9:35 AM66 °FSunny.3 mph52%30.17 "Hg10 mi
9:15 AM64 °FSunny.5 mph56%30.18 "Hg10 mi
8:55 AM63 °FSunny.3 mph68%30.18 "Hg10 mi
8:35 AM63 °FSunny.5 mph68%30.19 "Hg10 mi
8:15 AM61 °FSunny.5 mph72%30.19 "Hg10 mi
7:55 AM59 °FSunny.5 mph77%30.20 "Hg10 mi
7:35 AM55 °FSunny.No wind88%30.19 "Hg10 mi
6:55 AM52 °FSunny.3 mph88%30.19 "Hg10 mi
6:35 AM50 °FSunny.No wind88%30.19 "Hg10 mi
6:15 AM48 °FSunny.No wind94%30.19 "Hg10 mi
Weather by CustomWeather, © 2014

See weather overviewHow to use our weather pages